Torna al catalogo

FENGYUN 1C DEB

AttivoSSO
NORAD 31179·DEBRIS·🇨🇳 China

Lanciato May 10, 1999 da Taiyuan Satellite Launch Center

Loading…

Prossimi Passaggi (prossime 24 ore)

TLE

AggiornatoSource: Space-Track

Epoca: Sep 14, 2026, 18:53 UTC

1 31179U 99025BJH 26257.78727792  .00000827  00000-0  56002-3 0  9990
2 31179  99.0044 275.3414 0213407 327.4974  31.3193 13.92635326657826

Traccia FENGYUN 1C DEB in tempo reale con AllMySat

Download on the App Store